This demonstration page uses our WeatherBlox Daily Observations layout. Learn more.

Left ArrowRight Arrow

38.89511, -77.03637

Hourly Observations for December 28, 2020

Temp ( °F °C ) Dew Point ( °F °C ) Humidity (%) Winds ( mph kmh ) Pressure ( in mb ) Visibility ( mi km ) Precip ( " mm )
12:52 am 00:52 Cloudy 37 2.8 32 0 82 82 S 8 13 30.24 1024 10 16 0.00 0.00
1:52 am 01:52 Mostly Cloudy 37 2.8 32 0 82 82 S 12 19 30.23 1024 10 16 0.00 0.00
2:52 am 02:52 Cloudy 35 1.7 31 -0.6 85 85 S 6 9 30.23 1024 10 16 0.00 0.00
3:52 am 03:52 Cloudy 38 3.3 31 -0.6 76 76 SSW 9 15 30.19 1022 10 16 0.00 0.00
4:52 am 04:52 Cloudy 38 3.3 28 -2.2 68 68 S 13 20 30.17 1022 10 16 0.00 0.00
5:52 am 05:52 Cloudy 38 3.3 28 -2.2 68 68 S 13 20 30.16 1022 10 16 0.00 0.00
6:52 am 06:52 Cloudy 38 3.3 28 -2.2 68 68 S 12 19 30.18 1022 10 16 0.00 0.00
7:52 am 07:52 Mostly Cloudy 39 3.9 29 -1.7 67 67 S 12 19 30.16 1021 10 16 0.00 0.00
8:52 am 08:52 Mostly Cloudy 41 5 28 -2.2 60 60 S 7 11 30.19 1022 10 16 0.00 0.00
9:52 am 09:52 Mostly Cloudy 44 6.7 28 -2.2 53 53 SSW 13 20 30.19 1022 10 16 0.00 0.00
10:52 am 10:52 Partly Cloudy 45 7.2 29 -1.7 54 54 S 7 11 30.18 1022 10 16 0.00 0.00
11:52 am 11:52 Partly Cloudy 46 7.8 32 0 58 58 S 10 17 30.15 1021 10 16 0.00 0.00
12:52 pm 12:52 Mostly Sunny 48 8.9 33 0.6 56 56 S 13 20 30.13 1020 10 16 0.00 0.00
1:52 pm 13:52 Mostly Sunny 50 10 32 0 50 50 S 12 19 30.11 1020 10 16 0.00 0.00
2:52 pm 14:52 Mostly Sunny 52 11.1 33 0.6 49 49 S 9 15 30.11 1020 10 16 0.00 0.00
3:52 pm 15:52 Partly Cloudy 50 10 35 1.7 57 57 S 12 19 30.12 1020 10 16 0.00 0.00
4:52 pm 16:52 Partly Cloudy 49 9.4 34 1.1 56 56 SSW 8 13 30.13 1020 10 16 0.00 0.00
5:52 pm 17:52 Mostly Clear 49 9.4 33 0.6 55 55 SSW 8 13 30.14 1021 10 16 0.00 0.00
6:52 pm 18:52 Mostly Clear 44 6.7 36 2.2 73 73 S 6 9 30.16 1021 10 16 0.00 0.00
7:52 pm 19:52 Mostly Cloudy 45 7.2 34 1.1 66 66 SSW 7 11 30.18 1022 10 16 0.00 0.00
8:52 pm 20:52 Mostly Cloudy 44 6.7 35 1.7 71 71 S 3 6 30.20 1023 10 16 0.00 0.00
9:52 pm 21:52 Cloudy 44 6.7 36 2.2 73 73 Calm 30.21 1023 10 16 0.00 0.00
10:52 pm 22:52 Mostly Clear 45 7.2 34 1.1 66 66 N 9 15 30.24 1024 10 16 0.00 0.00
11:52 pm 23:52 Mostly Clear 43 6.1 30 -1.1 60 60 NNW 13 20 30.25 1024 10 16 0.00 0.00

Powered by AerisWeather